Air Quality Table

TIMESTAMP NO2 SO2 O3 PM10 PM2.5 TEMP HUM WS WD NO
2022-06-26 10:00 0.41 µg/m3 0.9 µg/m3 89.42 µg/m3 47.65 µg/m3 12.85 µg/m3 30.52 °C 43.82 % 3.5 m/s 148.32 Deg 0.11 µg/m3
2022-06-26 09:00 0.47 µg/m3 1.13 µg/m3 93.24 µg/m3 44.39 µg/m3 12.25 µg/m3 29.81 °C 42.87 % 4.37 m/s 115.19 Deg 0.11 µg/m3
2022-06-26 08:00 0.75 µg/m3 1.23 µg/m3 93.76 µg/m3 45.8 µg/m3 11.26 µg/m3 28.95 °C 44.78 % 5.85 m/s 147.94 Deg 0.15 µg/m3
2022-06-26 07:00 1.48 µg/m3 0.93 µg/m3 85.57 µg/m3 50.2 µg/m3 12.25 µg/m3 28.84 °C 36.65 % 5.09 m/s 135.11 Deg 0.15 µg/m3
2022-06-26 06:00 3.91 µg/m3 0.75 µg/m3 72.04 µg/m3 48.8 µg/m3 10.93 µg/m3 28.76 °C 26.73 % 2.54 m/s 100.35 Deg 0.13 µg/m3
2022-06-26 05:00 2.02 µg/m3 0.49 µg/m3 74.1 µg/m3 39.42 µg/m3 8.35 µg/m3 29.47 °C 24.38 % 2.89 m/s 96.99 Deg 0.06 µg/m3
2022-06-26 04:00 2.99 µg/m3 0.68 µg/m3 74.28 µg/m3 42.03 µg/m3 10.23 µg/m3 27.69 °C 36.32 % 3.03 m/s 164.92 Deg 0.06 µg/m3
2022-06-26 03:00 1.8 µg/m3 0.52 µg/m3 78.69 µg/m3 43.69 µg/m3 11.35 µg/m3 28.22 °C 30.57 % 4.57 m/s 86.94 Deg 0.05 µg/m3
2022-06-26 02:00 4.02 µg/m3 0.86 µg/m3 76.73 µg/m3 79.42 µg/m3 34.66 µg/m3 28.47 °C 30.19 % 2.85 m/s 59.38 Deg 0.06 µg/m3
2022-06-26 01:00 13.93 µg/m3 3.05 µg/m3 67.56 µg/m3 41.97 µg/m3 11.82 µg/m3 29.02 °C 30.16 % 3.41 m/s 74.83 Deg 0.07 µg/m3
2022-06-26 00:00 9.18 µg/m3 1.02 µg/m3 72.87 µg/m3 34.44 µg/m3 8.82 µg/m3 29.24 °C 29.3 % 3.47 m/s 37.28 Deg 0.07 µg/m3
2022-06-25 23:00 4.81 µg/m3 0.73 µg/m3 88.72 µg/m3 36.93 µg/m3 9.24 µg/m3 28.82 °C 33.09 % 2.35 m/s 160.3 Deg 0.06 µg/m3
2022-06-25 22:00 1.61 µg/m3 0.61 µg/m3 94.88 µg/m3 28.51 µg/m3 7.7 µg/m3 28.99 °C 27.74 % 3.28 m/s 116.67 Deg 0.05 µg/m3
2022-06-25 21:00 4.52 µg/m3 0.78 µg/m3 88.55 µg/m3 26.72 µg/m3 6.62 µg/m3 27.64 °C 38.65 % 2.89 m/s 97.88 Deg 0.06 µg/m3
2022-06-25 20:00 2.06 µg/m3 0.65 µg/m3 94 µg/m3 27.04 µg/m3 8.02 µg/m3 27.93 °C 40.86 % 2.31 m/s 126.51 Deg 0.06 µg/m3
2022-06-25 19:00 1.57 µg/m3 0.76 µg/m3 96 µg/m3 24.62 µg/m3 8.02 µg/m3 28.91 °C 39.29 % 2.55 m/s 118.08 Deg 0.12 µg/m3
2022-06-25 18:00 0.44 µg/m3 0.7 µg/m3 99.71 µg/m3 29.85 µg/m3 7.04 µg/m3 29.46 °C 39.25 % 4.04 m/s 132.34 Deg 0.09 µg/m3
2022-06-25 17:00 0.69 µg/m3 0.78 µg/m3 101.45 µg/m3 24.55 µg/m3 6.57 µg/m3 29.47 °C 42.52 % 5.11 m/s 93.49 Deg 0.14 µg/m3
2022-06-25 16:00 4.62 µg/m3 1 µg/m3 105.61 µg/m3 10.33 µg/m3 5.91 µg/m3 30.09 °C 50.03 % 3.86 m/s 166.18 Deg 1.65 µg/m3
2022-06-25 15:00 2.99 µg/m3 1.22 µg/m3 99.7 µg/m3 13.83 µg/m3 6.57 µg/m3 30.8 °C 40.99 % 2.4 m/s 255.27 Deg 0.46 µg/m3
2022-06-25 14:00 3.3 µg/m3 0.89 µg/m3 96.04 µg/m3 14.73 µg/m3 8.02 µg/m3 30.59 °C 45.68 % 2.77 m/s 92.22 Deg 0.53 µg/m3
2022-06-25 13:00 4.34 µg/m3 1.13 µg/m3 89.02 µg/m3 12.81 µg/m3 5.21 µg/m3 31.58 °C 34.77 % 2.14 m/s 221.82 Deg 0.63 µg/m3
2022-06-25 12:00 2.62 µg/m3 0.53 µg/m3 76.48 µg/m3 14.86 µg/m3 5.87 µg/m3 31.79 °C 20.11 % 3.72 m/s 282.1 Deg 0.17 µg/m3
2022-06-25 11:00 2.57 µg/m3 0.5 µg/m3 75.7 µg/m3 11.47 µg/m3 4.98 µg/m3 31.4 °C 17.25 % 2.77 m/s 270.71 Deg 0.24 µg/m3
2022-06-25 10:00 10.73 µg/m3 2.23 µg/m3 78.1 µg/m3 9.5 µg/m3 5.16 µg/m3 29.29 °C 37.2 % 2.53 m/s 276.16 Deg 2.6 µg/m3
2022-06-25 09:00 2.51 µg/m3 0.49 µg/m3 75.03 µg/m3 8.99 µg/m3 5.68 µg/m3 31.34 °C 19.85 % 1.56 m/s 185.36 Deg 0.17 µg/m3
2022-06-25 08:00 4.22 µg/m3 0.98 µg/m3 76.22 µg/m3 11.98 µg/m3 5.16 µg/m3 30.6 °C 24.74 % 0.8 m/s 191.9 Deg 0.42 µg/m3
2022-06-25 07:00 6.87 µg/m3 0.95 µg/m3 75.17 µg/m3 7.97 µg/m3 3.85 µg/m3 28.91 °C 25.11 % 1.01 m/s 76.59 Deg 0.49 µg/m3
2022-06-25 06:00 3.59 µg/m3 0.57 µg/m3 80.24 µg/m3 7.65 µg/m3 4.32 µg/m3 28.44 °C 22.72 % 1.12 m/s 164.11 Deg 0.08 µg/m3
2022-06-25 05:00 3.22 µg/m3 0.31 µg/m3 76.1 µg/m3 5.99 µg/m3 4.32 µg/m3 29.23 °C 18.56 % 0.83 m/s 57.01 Deg 0.05 µg/m3
2022-06-25 04:00 4.23 µg/m3 0.36 µg/m3 74.72 µg/m3 4.14 µg/m3 3.15 µg/m3 29.43 °C 19.36 % 1.1 m/s 180.45 Deg 0.05 µg/m3
2022-06-25 03:00 5.41 µg/m3 0.51 µg/m3 74.1 µg/m3 4.2 µg/m3 5.35 µg/m3 29.59 °C 18.49 % 0.88 m/s 149.96 Deg 0.06 µg/m3
2022-06-25 02:00 3.39 µg/m3 1.03 µg/m3 83.52 µg/m3 5.16 µg/m3 7.41 µg/m3 28.32 °C 31.04 % 1.96 m/s 223.52 Deg 0.05 µg/m3
2022-06-25 01:00 1.61 µg/m3 0.63 µg/m3 75.19 µg/m3 0.25 µg/m3 3.1 µg/m3 26.54 °C 58.47 % 2.2 m/s 316.6 Deg 0.05 µg/m3
2022-06-25 00:00 0.49 µg/m3 0.45 µg/m3 78.57 µg/m3 0.25 µg/m3 3.1 µg/m3 25.87 °C 65.34 % 2.58 m/s 250.57 Deg 0.06 µg/m3
2022-06-24 23:00 -1.51 µg/m3 0.62 µg/m3 51.09 µg/m3 -0.78 µg/m3 2.63 µg/m3 26.82 °C 49.52 % 1.67 m/s 212.36 Deg -1.12 µg/m3
2022-06-24 22:00 5.86 µg/m3 0.54 µg/m3 72.51 µg/m3 7.07 µg/m3 6.76 µg/m3 25.98 °C 64.59 % 1.39 m/s 154 Deg 0.06 µg/m3
2022-06-24 21:00 3.77 µg/m3 0.45 µg/m3 70.56 µg/m3 19.39 µg/m3 5.77 µg/m3 25.8 °C 68.98 % 1.65 m/s 162.66 Deg 0.06 µg/m3
2022-06-24 20:00 1.64 µg/m3 0.43 µg/m3 71.78 µg/m3 132.69 µg/m3 11.64 µg/m3 25.86 °C 75.12 % 2.08 m/s 195.3 Deg 1.38 µg/m3
2022-06-24 19:00 2.41 µg/m3 0.87 µg/m3 61.58 µg/m3 7.77 µg/m3 9.52 µg/m3 27.35 °C 55.53 % 2.42 m/s 175.77 Deg 2.29 µg/m3
2022-06-24 18:00 -0.07 µg/m3 0.94 µg/m3 70.73 µg/m3 3.56 µg/m3 8.35 µg/m3 27.16 °C 66.87 % 3.74 m/s 129.53 Deg 0.14 µg/m3
2022-06-24 17:00 0.57 µg/m3 1.03 µg/m3 87.12 µg/m3 5.09 µg/m3 8.92 µg/m3 27.6 °C 63.3 % 3.57 m/s 117.33 Deg 0.17 µg/m3
2022-06-24 16:00 0.59 µg/m3 0.93 µg/m3 100.65 µg/m3 6.69 µg/m3 8.12 µg/m3 27.67 °C 65.01 % 3.84 m/s 171.76 Deg 0.14 µg/m3
2022-06-24 15:00 1.19 µg/m3 1.18 µg/m3 96.78 µg/m3 6.63 µg/m3 9.29 µg/m3 28.41 °C 54.33 % 3.59 m/s 126.58 Deg 0.2 µg/m3
2022-06-24 14:00 3.75 µg/m3 1.13 µg/m3 87.4 µg/m3 3.95 µg/m3 8.12 µg/m3 29.76 °C 41.46 % 3.19 m/s 177.15 Deg 0.69 µg/m3
2022-06-24 13:00 4.93 µg/m3 1.5 µg/m3 79.9 µg/m3 5.86 µg/m3 6.57 µg/m3 28.84 °C 42.25 % 4.3 m/s 191.94 Deg 1.2 µg/m3
2022-06-24 12:00 6.99 µg/m3 2.26 µg/m3 76.21 µg/m3 9.5 µg/m3 7.84 µg/m3 28.37 °C 46.37 % 4.47 m/s 169.07 Deg 2.07 µg/m3
2022-06-24 11:00 9.87 µg/m3 2.13 µg/m3 70.5 µg/m3 7.33 µg/m3 7.56 µg/m3 27.37 °C 59.5 % 4.17 m/s 252.32 Deg 3.18 µg/m3
2022-06-24 10:00 2.34 µg/m3 0.65 µg/m3 82.82 µg/m3 7.39 µg/m3 8.82 µg/m3 26.38 °C 72.62 % 4.66 m/s 175.91 Deg 0.68 µg/m3
2022-06-24 09:00 0.68 µg/m3 0.96 µg/m3 89.16 µg/m3 36.42 µg/m3 8.73 µg/m3 26.87 °C 61.23 % 3.83 m/s 216.11 Deg 0.18 µg/m3
2022-06-24 08:00 3.08 µg/m3 1.01 µg/m3 88.3 µg/m3 7.71 µg/m3 5.54 µg/m3 26.9 °C 57.05 % 2.81 m/s 220.52 Deg 2.04 µg/m3
2022-06-24 07:00 7.21 µg/m3 0.54 µg/m3 79.03 µg/m3 8.09 µg/m3 10.84 µg/m3 25.41 °C 71.03 % 2.09 m/s 253.89 Deg 0.79 µg/m3
2022-06-24 06:00 1.73 µg/m3 0.36 µg/m3 79.42 µg/m3 6.75 µg/m3 8.92 µg/m3 24.32 °C 81.14 % 1.89 m/s 251.44 Deg 0.15 µg/m3
2022-06-24 05:00 0.37 µg/m3 0.29 µg/m3 87.41 µg/m3 7.07 µg/m3 9.01 µg/m3 24.47 °C 78.79 % 1.99 m/s 224.28 Deg 0.06 µg/m3
2022-06-24 04:00 1.31 µg/m3 0.26 µg/m3 78.58 µg/m3 5.6 µg/m3 8.87 µg/m3 24.12 °C 82.27 % 2.27 m/s 199.75 Deg 0.06 µg/m3
2022-06-24 03:00 1.17 µg/m3 0.28 µg/m3 83.19 µg/m3 6.37 µg/m3 7.65 µg/m3 23.89 °C 89.91 % 2.68 m/s 209.8 Deg 0.06 µg/m3
2022-06-24 02:00 1.04 µg/m3 0.4 µg/m3 92.67 µg/m3 3.95 µg/m3 6.95 µg/m3 24.15 °C 81.77 % 1.81 m/s 201.19 Deg 0.06 µg/m3
2022-06-24 01:00 1.19 µg/m3 0.68 µg/m3 104.46 µg/m3 5.54 µg/m3 8.68 µg/m3 26.3 °C 54.32 % 1.52 m/s 202.28 Deg 0.06 µg/m3
2022-06-24 00:00 0.64 µg/m3 0.64 µg/m3 103.57 µg/m3 4.71 µg/m3 8.87 µg/m3 26.2 °C 58.15 % 1.5 m/s 269.63 Deg 0.06 µg/m3
2022-06-23 23:00 5.59 µg/m3 0.58 µg/m3 94.75 µg/m3 5.09 µg/m3 6.76 µg/m3 25.46 °C 71.18 % 1.59 m/s 309.19 Deg 0.06 µg/m3
2022-06-23 22:00 0.69 µg/m3 0.39 µg/m3 96.76 µg/m3 3.75 µg/m3 9.52 µg/m3 25.28 °C 74.14 % 1.79 m/s 307.78 Deg 0.06 µg/m3
2022-06-23 21:00 -0.05 µg/m3 0.38 µg/m3 92.78 µg/m3 9.82 µg/m3 7.6 µg/m3 25.17 °C 74.5 % 2.5 m/s 237.32 Deg 0.06 µg/m3
2022-06-23 20:00 9.56 µg/m3 0.34 µg/m3 85.4 µg/m3 5.54 µg/m3 6.76 µg/m3 25.09 °C 78.62 % 4.34 m/s 206.74 Deg 0.22 µg/m3
2022-06-23 19:00 1.52 µg/m3 0.24 µg/m3 91.17 µg/m3 6.82 µg/m3 8.4 µg/m3 25.07 °C 83.37 % 4.68 m/s 219.86 Deg 0.47 µg/m3
2022-06-23 18:00 -0.09 µg/m3 0.29 µg/m3 87.52 µg/m3 5.54 µg/m3 7.74 µg/m3 25.53 °C 82.06 % 4.68 m/s 203.27 Deg 0.09 µg/m3
2022-06-23 17:00 -0.36 µg/m3 0.35 µg/m3 89.01 µg/m3 4.2 µg/m3 9.1 µg/m3 25.89 °C 77.47 % 4.85 m/s 154.28 Deg 0.07 µg/m3
2022-06-23 16:00 -0.31 µg/m3 0.31 µg/m3 90.42 µg/m3 5.92 µg/m3 5.63 µg/m3 25.95 °C 77.16 % 5.27 m/s 165.59 Deg 0.08 µg/m3
2022-06-23 15:00 -0.26 µg/m3 0.36 µg/m3 90.52 µg/m3 5.8 µg/m3 8.07 µg/m3 26.04 °C 74.77 % 5.31 m/s 136.64 Deg 0.08 µg/m3
2022-06-23 14:00 -0.14 µg/m3 0.42 µg/m3 93.78 µg/m3 3.37 µg/m3 7.93 µg/m3 26.25 °C 71.54 % 5.53 m/s 137.75 Deg 0.09 µg/m3
2022-06-23 13:00 -0.02 µg/m3 0.41 µg/m3 94.14 µg/m3 5.22 µg/m3 5.49 µg/m3 26.39 °C 68.84 % 5.2 m/s 207.63 Deg 0.1 µg/m3
2022-06-23 12:00 0.4 µg/m3 0.37 µg/m3 90.88 µg/m3 6.05 µg/m3 6.99 µg/m3 26.26 °C 68.11 % 5.45 m/s 208.61 Deg 0.2 µg/m3
2022-06-23 11:00 -0.1 µg/m3 0.41 µg/m3 93.09 µg/m3 5.09 µg/m3 4.69 µg/m3 26.44 °C 65.2 % 4.45 m/s 176.54 Deg 0.1 µg/m3
2022-06-23 10:00 0.68 µg/m3 0.69 µg/m3 93.26 µg/m3 5.54 µg/m3 4.46 µg/m3 26.05 °C 67.12 % 3.79 m/s 111.76 Deg 0.21 µg/m3
2022-06-23 09:00 4.86 µg/m3 0.88 µg/m3 88.76 µg/m3 3.37 µg/m3 8.31 µg/m3 25.66 °C 67.25 % 3.9 m/s 154.9 Deg 1.08 µg/m3
2022-06-23 08:00 1.34 µg/m3 0.35 µg/m3 86.44 µg/m3 1.78 µg/m3 9.9 µg/m3 25.09 °C 71.7 % 3.54 m/s 165.29 Deg 0.3 µg/m3
2022-06-23 07:00 2.88 µg/m3 0.27 µg/m3 77.28 µg/m3 3.75 µg/m3 7.79 µg/m3 24.32 °C 79.93 % 3.15 m/s 250 Deg 0.4 µg/m3
2022-06-23 06:00 4.12 µg/m3 0.22 µg/m3 71.75 µg/m3 3.37 µg/m3 7.32 µg/m3 23.53 °C 86.4 % 3.11 m/s 243.73 Deg 0.16 µg/m3
2022-06-23 05:00 0.7 µg/m3 0.24 µg/m3 77.43 µg/m3 3.12 µg/m3 9.06 µg/m3 23.45 °C 82.55 % 2.65 m/s 216.85 Deg 0.06 µg/m3
2022-06-23 04:00 0.41 µg/m3 0.3 µg/m3 86.76 µg/m3 3.95 µg/m3 7.13 µg/m3 23.84 °C 69.88 % 2.57 m/s 209.53 Deg 0.05 µg/m3
2022-06-23 03:00 -0.22 µg/m3 0.27 µg/m3 93.55 µg/m3 1.84 µg/m3 7.04 µg/m3 24.34 °C 62.2 % 1.77 m/s 206.73 Deg 0.06 µg/m3
2022-06-23 02:00 -0.09 µg/m3 0.29 µg/m3 93.35 µg/m3 3.75 µg/m3 6.85 µg/m3 24.3 °C 61.16 % 1.68 m/s 173.82 Deg 0.06 µg/m3
2022-06-23 01:00 -0.29 µg/m3 0.32 µg/m3 92.8 µg/m3 3.12 µg/m3 7.37 µg/m3 24.56 °C 62.01 % 1.68 m/s 191.01 Deg 0.05 µg/m3
2022-06-23 00:00 -0.4 µg/m3 0.26 µg/m3 91.44 µg/m3 2.54 µg/m3 7.56 µg/m3 24.47 °C 63.55 % 1.55 m/s 186.72 Deg 0.06 µg/m3
2022-06-22 23:00 -0.31 µg/m3 0.21 µg/m3 75.95 µg/m3 3.24 µg/m3 7.74 µg/m3 23.47 °C 87.28 % 2.07 m/s 222.36 Deg 0.06 µg/m3
2022-06-22 22:00 -0.02 µg/m3 0.18 µg/m3 77.78 µg/m3 4.26 µg/m3 5.87 µg/m3 23.67 °C 87.61 % 2.9 m/s 257.24 Deg 0.07 µg/m3
2022-06-22 21:00 2.1 µg/m3 0.26 µg/m3 80.16 µg/m3 4.78 µg/m3 7.32 µg/m3 23.9 °C 83.98 % 2.46 m/s 254.96 Deg 0.06 µg/m3
2022-06-22 20:00 0.93 µg/m3 0.18 µg/m3 79.26 µg/m3 4.2 µg/m3 8.92 µg/m3 24.03 °C 84.78 % 2.59 m/s 238.82 Deg 0.06 µg/m3
2022-06-22 19:00 -0.5 µg/m3 0.17 µg/m3 81.45 µg/m3 4.26 µg/m3 4.88 µg/m3 24.51 °C 84.17 % 3.56 m/s 238.66 Deg 0.05 µg/m3
2022-06-22 18:00 -0.46 µg/m3 0.23 µg/m3 80.48 µg/m3 4.07 µg/m3 7.56 µg/m3 24.89 °C 82.04 % 3.78 m/s 192.97 Deg 0.07 µg/m3
2022-06-22 17:00 -0.39 µg/m3 0.22 µg/m3 79.95 µg/m3 4.39 µg/m3 7.13 µg/m3 25.34 °C 80.33 % 3.56 m/s 135.52 Deg 0.07 µg/m3
2022-06-22 16:00 -0.25 µg/m3 0.23 µg/m3 80.9 µg/m3 5.92 µg/m3 7.88 µg/m3 25.56 °C 77.85 % 3.87 m/s 202.49 Deg 0.09 µg/m3
2022-06-22 15:00 -0.28 µg/m3 0.22 µg/m3 80.88 µg/m3 4.33 µg/m3 7.74 µg/m3 25.55 °C 78.74 % 4.39 m/s 177.55 Deg 0.08 µg/m3
2022-06-22 14:00 -0.22 µg/m3 0.17 µg/m3 85.68 µg/m3 3.56 µg/m3 6.71 µg/m3 25.7 °C 76.99 % 4.87 m/s 178 Deg 0.08 µg/m3
2022-06-22 13:00 -0.03 µg/m3 -0.91 µg/m3 88.77 µg/m3 5.29 µg/m3 8.77 µg/m3 25.67 °C 77.33 % 5.15 m/s 189.85 Deg 0.1 µg/m3
2022-06-22 12:00 0.01 µg/m3 -5.66 µg/m3 83.84 µg/m3 -0.78 µg/m3 2.63 µg/m3 24.97 °C 83.32 % 5.14 m/s 223.48 Deg 0.11 µg/m3
2022-06-22 11:00 -0.46 µg/m3 -8.97 µg/m3 47.62 µg/m3 -0.78 µg/m3 2.63 µg/m3 24.71 °C 87.2 % 4.23 m/s 224.82 Deg 0.08 µg/m3
2022-06-22 10:00 -4.55 µg/m3 -0.02 µg/m3 0 µg/m3 -0.78 µg/m3 2.63 µg/m3 24.62 °C 88.24 % 3.43 m/s 228.73 Deg -2.75 µg/m3
2022-06-22 09:00 0 µg/m3 0 µg/m3 0 µg/m3 µg/m3 µg/m3 °C % m/s Deg 0 µg/m3
2022-06-22 08:00 0 µg/m3 0 µg/m3 0 µg/m3 µg/m3 µg/m3 °C % m/s Deg 0 µg/m3
2022-06-22 07:00 0 µg/m3 0 µg/m3 0 µg/m3 µg/m3 µg/m3 °C % m/s Deg 0 µg/m3
2022-06-22 06:00 0 µg/m3 0 µg/m3 0 µg/m3 µg/m3 µg/m3 °C % m/s Deg 0 µg/m3
2022-06-22 05:00 0 µg/m3 0 µg/m3 0 µg/m3 µg/m3 µg/m3 °C % m/s Deg 0 µg/m3
2022-06-22 04:00 0 µg/m3 0 µg/m3 0 µg/m3 µg/m3 µg/m3 °C % m/s Deg 0 µg/m3
2022-06-22 03:00 0 µg/m3 0 µg/m3 0 µg/m3 µg/m3 µg/m3 °C % m/s Deg 0 µg/m3
2022-06-22 02:00 0 µg/m3 0 µg/m3 0 µg/m3 µg/m3 µg/m3 °C % m/s Deg 0 µg/m3
2022-06-22 01:00 0 µg/m3 0 µg/m3 0 µg/m3 µg/m3 µg/m3 °C % m/s Deg 0 µg/m3
2022-06-22 00:00 0 µg/m3 0 µg/m3 0 µg/m3 µg/m3 µg/m3 °C % m/s Deg 0 µg/m3
2022-06-21 23:00 0 µg/m3 0 µg/m3 0 µg/m3 µg/m3 µg/m3 °C % m/s Deg 0 µg/m3
2022-06-21 22:00 -0.4 µg/m3 0.27 µg/m3 92.6 µg/m3 µg/m3 µg/m3 23.16 °C 91.96 % 3.28 m/s 237.32 Deg 0.06 µg/m3
2022-06-21 21:00 -0.38 µg/m3 0.3 µg/m3 90.52 µg/m3 5.54 µg/m3 7.79 µg/m3 23.19 °C 89.31 % 3.16 m/s 239.96 Deg 0.06 µg/m3
2022-06-21 20:00 -0.31 µg/m3 0.29 µg/m3 95.8 µg/m3 6.18 µg/m3 8.32 µg/m3 23.39 °C 87.61 % 3.61 m/s 241.97 Deg 0.07 µg/m3
2022-06-21 19:00 -0.36 µg/m3 0.35 µg/m3 96.34 µg/m3 5.22 µg/m3 8.15 µg/m3 23.94 °C 82.72 % 4.12 m/s 197.83 Deg 0.06 µg/m3
2022-06-21 18:00 -0.26 µg/m3 0.44 µg/m3 95.49 µg/m3 4.9 µg/m3 7.29 µg/m3 24.43 °C 77.96 % 5.05 m/s 163.38 Deg 0.07 µg/m3
2022-06-21 17:00 -0.12 µg/m3 0.49 µg/m3 99 µg/m3 7.52 µg/m3 8.34 µg/m3 24.65 °C 76.38 % 5.26 m/s 180.38 Deg 0.09 µg/m3
2022-06-21 16:00 -0 µg/m3 0.56 µg/m3 104.32 µg/m3 12.81 µg/m3 7.54 µg/m3 24.9 °C 74.65 % 4.78 m/s 167.57 Deg 0.11 µg/m3
2022-06-21 15:00 0.32 µg/m3 0.52 µg/m3 104.08 µg/m3 7.07 µg/m3 7.94 µg/m3 24.89 °C 74.43 % 4.54 m/s 163.46 Deg 0.12 µg/m3
2022-06-21 14:00 -0.08 µg/m3 0.51 µg/m3 111.47 µg/m3 12.11 µg/m3 8.21 µg/m3 24.78 °C 77.9 % 4.54 m/s 173.76 Deg 0.08 µg/m3
2022-06-21 13:00 0.64 µg/m3 0.6 µg/m3 116.84 µg/m3 8.48 µg/m3 7.93 µg/m3 24.42 °C 80.34 % 4.64 m/s 158.88 Deg 0.15 µg/m3
2022-06-21 12:00 0.5 µg/m3 0.6 µg/m3 118.02 µg/m3 5.86 µg/m3 7.8 µg/m3 24.68 °C 75.37 % 3.98 m/s 132.64 Deg 0.17 µg/m3
2022-06-21 11:00 1.76 µg/m3 0.72 µg/m3 119.98 µg/m3 4.39 µg/m3 7.47 µg/m3 24.57 °C 73.07 % 3.77 m/s 208.23 Deg 0.34 µg/m3
2022-06-21 10:00 -0.12 µg/m3 0.53 µg/m3 114.16 µg/m3 4.39 µg/m3 7.82 µg/m3 24.41 °C 73.32 % 3.52 m/s 148.06 Deg 0.16 µg/m3
2022-06-21 09:00 0 µg/m3 0.73 µg/m3 115.91 µg/m3 5.54 µg/m3 8.58 µg/m3 24.19 °C 73.33 % 3.36 m/s 151.16 Deg 0 µg/m3
2022-06-21 08:00 0.54 µg/m3 0.52 µg/m3 118.01 µg/m3 6.18 µg/m3 8.28 µg/m3 23.93 °C 74.84 % 2.6 m/s 203.43 Deg -0.69 µg/m3
2022-06-21 07:00 0.53 µg/m3 0.41 µg/m3 116.25 µg/m3 7.45 µg/m3 8.49 µg/m3 23.44 °C 78.49 % 1.75 m/s 233.87 Deg -0.69 µg/m3
2022-06-21 06:00 0.4 µg/m3 0.32 µg/m3 117.6 µg/m3 7.07 µg/m3 7.52 µg/m3 22.25 °C 88.03 % 1.33 m/s 278.58 Deg -0.72 µg/m3
2022-06-21 05:00 0.24 µg/m3 0.32 µg/m3 121.35 µg/m3 5.92 µg/m3 8.54 µg/m3 21.92 °C 90.96 % 1.4 m/s 295.9 Deg -0.72 µg/m3
2022-06-21 04:00 0.29 µg/m3 0.4 µg/m3 123.05 µg/m3 7.52 µg/m3 10.03 µg/m3 22.27 °C 86.32 % 1.41 m/s 300.92 Deg -0.72 µg/m3
2022-06-21 03:00 0.64 µg/m3 0.44 µg/m3 124.73 µg/m3 5.86 µg/m3 9.67 µg/m3 22.31 °C 85.3 % 1.46 m/s 270.88 Deg -0.72 µg/m3
2022-06-21 02:00 0.48 µg/m3 0.45 µg/m3 130.03 µg/m3 7.45 µg/m3 9.82 µg/m3 22.54 °C 82.67 % 1.4 m/s 231.69 Deg -0.73 µg/m3
2022-06-21 01:00 0.39 µg/m3 0.44 µg/m3 133.72 µg/m3 5.41 µg/m3 10.19 µg/m3 22.75 °C 83.61 % 0.47 m/s 285.3 Deg -0.73 µg/m3
2022-06-21 00:00 0.45 µg/m3 0.57 µg/m3 134.36 µg/m3 7.45 µg/m3 8.27 µg/m3 23.19 °C 77.36 % 1.16 m/s 256.12 Deg -0.72 µg/m3
2022-06-20 23:00 0.53 µg/m3 0.62 µg/m3 136.46 µg/m3 7.9 µg/m3 9.18 µg/m3 23.33 °C 74.14 % 0.83 m/s 219.7 Deg -0.73 µg/m3
2022-06-20 22:00 0.66 µg/m3 0.64 µg/m3 135.38 µg/m3 7.65 µg/m3 9.43 µg/m3 23.42 °C 73.43 % 0.93 m/s 225.48 Deg -0.72 µg/m3
2022-06-20 21:00 0.89 µg/m3 0.61 µg/m3 128.82 µg/m3 7.45 µg/m3 8.99 µg/m3 23.46 °C 74.63 % 0.86 m/s 211.55 Deg -0.72 µg/m3
2022-06-20 20:00 0.58 µg/m3 0.57 µg/m3 126.48 µg/m3 8.54 µg/m3 10.63 µg/m3 23.58 °C 75.46 % 1.09 m/s 175.98 Deg -0.73 µg/m3
2022-06-20 19:00 0.78 µg/m3 0.63 µg/m3 136.83 µg/m3 8.54 µg/m3 9.21 µg/m3 24.16 °C 74.55 % 2.4 m/s 115.55 Deg -0.72 µg/m3
2022-06-20 18:00 1 µg/m3 0.8 µg/m3 141.36 µg/m3 8.92 µg/m3 8.93 µg/m3 24.7 °C 67.79 % 3.3 m/s 162.67 Deg -0.71 µg/m3
2022-06-20 17:00 1.24 µg/m3 1.02 µg/m3 144.66 µg/m3 9.24 µg/m3 9.23 µg/m3 24.9 °C 69.53 % 3.58 m/s 147.37 Deg -0.67 µg/m3
2022-06-20 16:00 2.78 µg/m3 1.05 µg/m3 147.63 µg/m3 9.43 µg/m3 9.26 µg/m3 25.38 °C 64.02 % 3.4 m/s 210.62 Deg -0.52 µg/m3
2022-06-20 15:00 1.6 µg/m3 1.05 µg/m3 146.12 µg/m3 8.99 µg/m3 8.5 µg/m3 25.34 °C 67.83 % 3.73 m/s 164.01 Deg -0.65 µg/m3
2022-06-20 14:00 2.2 µg/m3 1.32 µg/m3 140.16 µg/m3 7.01 µg/m3 8.65 µg/m3 26 °C 62.03 % 2.54 m/s 194.84 Deg -0.57 µg/m3
2022-06-20 13:00 3.28 µg/m3 1.27 µg/m3 130.05 µg/m3 8.03 µg/m3 9.23 µg/m3 25.69 °C 58.66 % 2.77 m/s 116.65 Deg -0.39 µg/m3
2022-06-20 12:00 6.43 µg/m3 1.18 µg/m3 114.68 µg/m3 8.41 µg/m3 8.86 µg/m3 25.01 °C 66.84 % 3.82 m/s 152.27 Deg 0.3 µg/m3
2022-06-20 11:00 4.65 µg/m3 1.15 µg/m3 118.72 µg/m3 10.2 µg/m3 8.5 µg/m3 26.5 °C 52.16 % 2.82 m/s 275.84 Deg -0.08 µg/m3
2022-06-20 10:00 4.91 µg/m3 1.29 µg/m3 120.98 µg/m3 6.82 µg/m3 8.97 µg/m3 25.95 °C 51.61 % 3.21 m/s 289 Deg -0.13 µg/m3
2022-06-20 09:00 5.62 µg/m3 1.28 µg/m3 119.57 µg/m3 7.58 µg/m3 10.46 µg/m3 25.27 °C 50.02 % 2.74 m/s 224 Deg -0.04 µg/m3
2022-06-20 08:00 15.52 µg/m3 1.6 µg/m3 102.96 µg/m3 13.2 µg/m3 10.06 µg/m3 24.38 °C 57.22 % 2.76 m/s 280.08 Deg 1.31 µg/m3
2022-06-20 07:00 7.48 µg/m3 1.19 µg/m3 104.19 µg/m3 11.54 µg/m3 10.09 µg/m3 23.51 °C 64.12 % 1.96 m/s 150.21 Deg -0.14 µg/m3
2022-06-20 06:00 6.8 µg/m3 0.46 µg/m3 86.68 µg/m3 10.71 µg/m3 10.45 µg/m3 21.28 °C 92.34 % 1.96 m/s 131.27 Deg -0.47 µg/m3
2022-06-20 05:00 5.68 µg/m3 0.3 µg/m3 81.07 µg/m3 9.24 µg/m3 10.65 µg/m3 21.23 °C 97.1 % 2.69 m/s 57.62 Deg -0.7 µg/m3
2022-06-20 04:00 2.15 µg/m3 0.34 µg/m3 89.73 µg/m3 11.47 µg/m3 10.8 µg/m3 21.25 °C 97.1 % 2.83 m/s 44.83 Deg -0.71 µg/m3
2022-06-20 03:00 2.98 µg/m3 0.45 µg/m3 98.41 µg/m3 10.77 µg/m3 11.51 µg/m3 21.48 °C 95.08 % 2.69 m/s 53.38 Deg -0.71 µg/m3
2022-06-20 02:00 3.05 µg/m3 0.44 µg/m3 99.4 µg/m3 11.16 µg/m3 10.22 µg/m3 21.57 °C 91.94 % 2.07 m/s 146.24 Deg -0.7 µg/m3
2022-06-20 01:00 2.19 µg/m3 0.32 µg/m3 97.96 µg/m3 10.39 µg/m3 8.27 µg/m3 21.7 °C 91.68 % 2.49 m/s 60.08 Deg -0.7 µg/m3
2022-06-20 00:00 1.2 µg/m3 0.32 µg/m3 107.95 µg/m3 8.86 µg/m3 7.79 µg/m3 21.91 °C 88.78 % 1.32 m/s 48.51 Deg -0.71 µg/m3
2022-06-19 23:00 1.71 µg/m3 0.44 µg/m3 118.41 µg/m3 9.94 µg/m3 9.48 µg/m3 22.2 °C 87.77 % 1.08 m/s 171.53 Deg -0.72 µg/m3
2022-06-19 22:00 1.07 µg/m3 0.5 µg/m3 112.79 µg/m3 12.18 µg/m3 10.48 µg/m3 22.28 °C 83.54 % 0.34 m/s 44.16 Deg -0.71 µg/m3
2022-06-19 21:00 1.04 µg/m3 0.55 µg/m3 117.94 µg/m3 9.3 µg/m3 9.71 µg/m3 22.75 °C 81.74 % 0.77 m/s 291.88 Deg -0.73 µg/m3
2022-06-19 20:00 1.49 µg/m3 0.58 µg/m3 114.45 µg/m3 11.09 µg/m3 9.1 µg/m3 23.38 °C 75.66 % 1.54 m/s 143.2 Deg -0.71 µg/m3
2022-06-19 19:00 5.09 µg/m3 0.74 µg/m3 119.62 µg/m3 12.18 µg/m3 9.64 µg/m3 24.32 °C 73.38 % 2.89 m/s 80.77 Deg -0.56 µg/m3
2022-06-19 18:00 5.43 µg/m3 0.96 µg/m3 126.34 µg/m3 8.41 µg/m3 8.83 µg/m3 25.74 °C 64.36 % 2.43 m/s 156.54 Deg -0.41 µg/m3
2022-06-19 17:00 3 µg/m3 0.87 µg/m3 132.27 µg/m3 8.41 µg/m3 9.06 µg/m3 27.23 °C 46.18 % 3.67 m/s 17.91 Deg -0.59 µg/m3
2022-06-19 16:00 1.81 µg/m3 0.82 µg/m3 131.84 µg/m3 11.92 µg/m3 10.62 µg/m3 27.35 °C 47.09 % 3.91 m/s 63.71 Deg -0.64 µg/m3
2022-06-19 15:00 1.96 µg/m3 1.19 µg/m3 133.29 µg/m3 10.64 µg/m3 10.16 µg/m3 26.35 °C 64.12 % 5.54 m/s 233.29 Deg -0.61 µg/m3
2022-06-19 14:00 1.68 µg/m3 0.99 µg/m3 132.84 µg/m3 10.26 µg/m3 10.03 µg/m3 26.03 °C 67.22 % 5.86 m/s 143.66 Deg -0.63 µg/m3
2022-06-19 13:00 1.51 µg/m3 0.97 µg/m3 129.87 µg/m3 11.09 µg/m3 9.98 µg/m3 25.69 °C 68.67 % 6.09 m/s 198.27 Deg -0.61 µg/m3
2022-06-19 12:00 2.31 µg/m3 1.03 µg/m3 136.35 µg/m3 11.54 µg/m3 8.89 µg/m3 25.26 °C 69.21 % 5.94 m/s 250.39 Deg -0.54 µg/m3

It is to be noted that the data is provisional and subject to quality assurance procedures. For validated data kindly refer your request to contact.air@era.org.mt